Regional Weather Roundup
Issued by NWS New Orleans/Baton Rouge, LA

Home | Current Version | Previous Version | Text Only | Print | Product List | Glossary On
Versions: 1 2 3 4 5 6 7 8 9 10 11 12 13 14 15 16 17 18 19 20 21 22 23 24 25 26 27 28 29 30 31 32 33 34 35 36 37 38 39 40 41 42 43 44 45 46 47 48 49 50
000
ASUS44 KLIX 011510
RWRLIX
NEW ORLEANS REGIONAL WEATHER ROUNDUP
NATIONAL WEATHER SERVICE NEW ORLEANS LA
900 AM CST SUN MAR 01 2015

NOTE: "FAIR" INDICATES FEW OR NO CLOUDS BELOW 12,000 FEET WITH NO
      SIGNIFICANT WEATHER AND/OR OBSTRUCTIONS TO VISIBILITY.
      SKY/WX - SKY CONDITION AND SIGNIFICANT WEATHER.
      TMP - AIR TEMPERATURE.     DP    - DEWPOINT TEMPERATURE.
      RH  - RELATIVE HUMIDITY.   PRES  - PRESSURE.
      HI  - HEAT INDEX.          WCI   - WIND CHILL INDEX.

*  THESE STATIONS ARE NOT NWS OR FAA STATIONS AND ARE NOT UNDER
   NWS QUALITY CONTROL.

LAZ038-040-048-061>063-065>067-069-011600-
SOUTHEAST LOUISIANA

CITY           SKY/WX    TMP DP  RH WIND       PRES   REMARKS
N.O. AUDUBON     N/A     58  58 100 MISG        N/A
N.O. INTL ARPT FOG       57  55  93 E8        30.33R VSB 1/4
N.O. LAKEFRONT FOG       56  53  90 E14       30.34R VSB 1/4
SLIDELL        FOG       55  55 100 E7        30.35R VSB 3/4
BATON ROUGE    CLOUDY    58  56  93 E10       30.30R
BOOTHVILLE     CLOUDY    65  63  93 E8        30.33R
BELLE CHASSE   FOG       60  58  92 E9        30.32R VSB 1/2
BOGALUSA*        N/A     58  54  86 SE6       30.36S
GALLIANO*      CLOUDY    58  56  96 CALM      30.32R
NEW ROADS*     CLOUDY    58  57  94 E8        30.29R
GONZALES*      CLOUDY    57  57 100 E7        30.30S FOG
HAMMOND*       CLOUDY    57  55  94 SE9       30.34S FOG
HOUMA*         CLOUDY    64  63  94 E12       30.30S FOG
PORT FOURCHON* PTSUNNY   64  63  94 E9        30.33S FOG

$$

MSZ070-080>082-011600-
SOUTHERN MISSISSIPPI

CITY           SKY/WX    TMP DP  RH WIND       PRES   REMARKS
MCCOMB         CLOUDY    56  54  93 SE9       30.32S FOG
GULFPORT       FOG       54  52  93 E9        30.36R VSB 1
BILOXI         CLOUDY    53  53 100 E8        30.36S FOG
PASCAGOULA     CLOUDY    53  52  96 E8        30.37S FOG
STENNIS ARPT*  CLOUDY    54  52  94 E7        30.36R FOG

$$

COASTAL OBSERVATIONS
LAKE AND NEARSHORE STATIONS

STATION/POSITION TIME  TEMP    WIND        PRES    WAVE
                       AIR SEA DIR/SP/G            HT/PER
                 (UTC) (F)     (DEG/KT/KT) (MB)    (FT/S)
PASCAGOULA       1500   53      70/ 13/ 16 1027.7
WAVELAND YACHT   1500   53 52  100/  8/ 10 1027.7
GRAND ISLE       1500   62 57  110/  7/ 11 1026.4
SOUTHWEST PASS   1500   60 47   80/ 15/ 17 1026.6
NEW CANAL        1500   55      90/  4/ 11 1027.4
SHELL BEACH      1500   55 53   60/ 11/ 12 1027.0

OFFSHORE STATIONS

STATION/POSITION TIME  TEMP    WIND        PRES    WAVE
                       AIR SEA DIR/SP/G            HT/PER
                 (UTC) (F)     (DEG/KT/KT) (MB)    (FT/S)
64 S DAUPHIN ISL 1443   67 71  110/ 19/ 23 1027.2    6/ 7

$$



USA.gov is the U.S. government's official web portal to all federal, state and local government web resources and services.